[[{"header":{"parameterUnit":"m.s-1","parameterCategory":1,"la1":30.2991,"la2":30.254,"lo1":-89.0895,"lo2":-89.0444,"dy":0.0017,"dx":0.0017,"nx":28,"ny":28,"refTime":"2023-08-07T03:00:00:Z","depth":0,"parameterNumber":2,"parameterNumberName":"U-component_of_WINDS"},"data":[0,0,0,0,0,0,0,0,0,0,0,0,0,0,0,0,0,0,0,0,0,0,0,0,0,0,0,0,0,0,0,0,0,0,0,0,0,0,0,0,0,0,0,0,0,0,0,0,0,0,0,0,0,0,0,0,0,0,5.6039,5.604,0,5.6121,5.6122,5.6123,5.6029,5.6026,5.6022,5.6019,5.6101,5.6107,5.6112,0,0,0,0,0,0,0,0,0,0,0,0,0,5.5799,5.5804,5.6039,5.604,5.6041,5.6121,5.6122,5.6123,5.603,5.6026,5.6021,5.6017,5.6099,5.6106,5.6112,0,0,0,0,0,0,0,0,0,0,0,0,0,5.5895,5.5806,5.6039,5.6005,5.6002,5.6121,5.6122,5.6123,5.6031,5.6026,5.602,5.6015,5.6097,5.6105,5.6113,5.6269,0,0,5.6138,5.6142,0,0,0,0,0,0,0,0,5.5889,5.5903,5.6009,5.6007,5.6005,5.606,5.6067,5.6172,5.6032,5.602,5.6019,5.6013,5.6092,5.61,5.6127,5.6273,5.6277,5.6139,5.6144,5.6148,5.615,0,0,0,0,0,0,0,5.5883,5.5899,5.6071,5.601,5.6008,5.5984,5.5991,5.6087,5.6084,5.6021,5.6014,5.6025,5.6089,5.6119,5.6128,5.6278,5.6139,5.6146,5.6151,5.6154,5.6551,5.6556,0,0,0,0,0,0,5.588,5.5894,5.6069,5.6074,5.5933,5.5992,5.6001,5.6047,5.6083,5.6083,5.6029,5.602,5.6108,5.6118,5.613,5.6311,5.6147,5.6155,5.616,5.6545,5.6552,5.6558,0,0,0,0,0,0,5.5876,5.5897,5.6066,5.5982,5.6002,5.6002,5.6055,5.6052,5.6081,5.609,5.6088,5.606,5.6104,5.6119,5.6234,5.6313,5.6159,5.6166,5.6538,5.6547,5.6555,5.6676,0,0,0,0,0,0,5.5869,5.5896,5.5956,5.5985,5.6007,5.617,5.606,5.6057,5.6096,5.6084,5.6118,5.6119,5.6101,5.6223,5.6242,5.6321,5.6173,5.6531,5.6542,5.6552,5.6665,5.6688,5.6707,0,0,0,0,0,5.5861,5.5988,5.596,5.5981,5.6082,5.6174,5.6187,5.6164,5.6103,5.6162,5.6167,5.6118,5.6302,5.6235,5.6257,5.6339,5.6526,5.6539,5.6551,5.6656,5.6683,5.6707,0,0,0,0,0,0,5.5969,5.5991,5.596,5.61,5.6136,5.6158,5.6233,5.6195,5.6249,5.6236,5.6205,5.6214,5.6335,5.6349,5.6275,5.6489,5.6403,5.6421,5.6475,5.6502,5.6522,5.6515,5.6179,0,0,0,0,0,5.6009,5.6083,5.6098,5.622,5.624,5.6234,5.6273,5.6252,5.6288,5.6302,5.6316,5.6352,5.6417,5.6461,5.6522,5.6668,5.6671,5.6735,5.6756,5.6773,5.6787,5.6861,5.6888,5.6599,5.6599,5.6599,0,0,5.6093,5.6114,5.6163,5.6242,5.6268,5.6342,5.6247,5.6332,5.6386,5.6315,5.6423,5.6435,5.6472,5.6603,5.6661,5.6618,5.6868,5.6789,5.6803,5.6808,5.6876,5.6904,5.6928,5.6608,5.6606,5.6605,0,0,5.6283,5.6308,5.641,5.6437,5.6476,5.6471,5.6495,5.6523,5.6527,5.6636,5.6583,5.6647,5.6762,5.6789,5.6818,5.7016,5.6971,5.7037,5.7145,5.7217,5.724,5.726,5.7326,5.735,5.7052,5.7052,5.7052,0,5.6381,5.6493,5.6467,5.6554,5.6589,5.6528,5.663,5.6657,5.6715,5.6739,5.6691,5.683,5.6852,5.6985,5.7033,5.706,5.7084,5.7031,5.7239,5.7259,5.7277,5.7339,5.7365,5.706,5.7059,5.7058,5.7057,0,5.661,5.6688,5.6766,5.6821,5.6865,5.696,5.6946,5.6994,5.6969,5.6968,5.7077,5.7101,5.7163,5.7194,5.7172,5.7323,5.7295,5.7244,5.7156,5.7312,5.737,5.7394,5.707,5.7068,5.7065,5.7064,0,0,5.687,5.6908,5.6937,5.6959,5.6997,5.7056,5.7146,5.7207,5.7246,5.7288,5.736,5.7457,5.7408,5.7442,5.7421,5.7485,5.7634,5.7425,5.7425,5.7459,5.7798,5.7833,5.7862,5.7606,5.7611,5.7614,5.7793,0,5.7056,5.7212,5.7191,5.734,5.7409,5.7351,5.7429,5.7459,5.7461,5.7519,5.752,5.7587,5.7521,5.7539,5.76,5.7603,5.7701,5.7591,5.767,5.7673,5.7658,5.7893,5.7931,5.8099,5.7816,5.782,5.7823,0,5.7295,5.7343,5.7499,5.7522,5.755,5.7621,5.7673,5.773,5.7762,5.7758,5.7794,5.7762,5.7849,5.7762,5.788,5.7805,5.7837,5.7843,5.7849,5.7852,5.7755,5.7898,5.8152,5.8176,5.7859,5.7856,5.7854,0,5.7463,5.7568,5.7673,5.7695,5.7726,5.7776,5.7791,5.7818,5.7855,5.79,5.7923,5.7978,5.8008,5.8051,5.8033,5.7972,5.8153,5.8065,5.8149,5.8149,5.8187,5.8184,5.8445,5.8214,5.8214,5.8213,5.8213,0,5.7672,5.7768,5.7748,5.7813,5.7918,5.7892,5.7996,5.8004,5.8028,5.8091,5.8046,5.8106,5.8081,5.8139,5.8126,5.8222,5.8237,5.8234,5.8229,5.8236,5.8236,5.8254,5.824,5.822,5.8218,5.8217,5.8216,0,5.7876,5.7867,5.7977,5.7997,5.8004,5.808,5.8096,5.8155,5.8153,5.8233,5.825,5.8246,5.8311,5.8298,5.8371,5.8362,5.8482,5.8465,5.8471,5.8465,5.8548,5.8538,5.8826,5.886,5.8611,5.8614,5.8616,0,5.8008,5.808,5.8107,5.8146,5.8164,5.8229,5.8265,5.8241,5.8281,5.8321,5.8375,5.8436,5.8483,5.859,5.8593,5.8647,5.8627,5.8725,5.8635,5.8639,5.8623,5.8618,5.8623,5.8741,5.8744,5.8746,5.8748,0,5.8241,5.8232,5.8287,5.834,5.8384,5.8425,5.846,5.8495,5.8474,5.852,5.8586,5.8623,5.8696,5.8756,5.8805,5.8819,5.8779,5.8777,5.8798,5.8804,5.8803,5.88,5.8515,5.8769,5.8767,5.8766,5.8765,5.8764,5.841,5.847,5.8497,5.8558,5.8583,5.8616,5.8671,5.8675,5.873,5.8786,5.877,5.8843,5.887,5.8933,5.8953,5.9009,5.8972,5.9004,5.9012,5.9019,5.9027,5.8797,5.9018,5.9018,5.9017,5.9017,5.9016,0,5.8637,5.8651,5.8708,5.8758,5.8806,5.8765,5.8802,5.8843,5.8909,5.8938,5.8985,5.9059,5.9116,5.9123,5.9176,5.9219,5.9202,5.9234,5.9228,5.9231,5.9059,5.9033,5.9247,5.9246,5.9246,5.9246,5.9246,5.9246,5.876,5.8858,5.8852,5.896,5.8973,5.9045,5.9069,5.9098,5.9121,5.9205,5.9252,5.9256,5.9275,5.9329,5.9378,5.9378,5.9398,5.9436,5.9429,5.9267,5.9244,5.9222,5.9197,5.9442,5.9442,5.9596,5.9598,5.9599]},{"header":{"parameterUnit":"m.s-1","parameterCategory":1,"la1":30.2991,"la2":30.254,"lo1":-89.0895,"lo2":-89.0444,"dy":0.0017,"dx":0.0017,"nx":28,"ny":28,"refTime":"2023-08-07T03:00:00:Z","depth":0,"parameterNumber":3,"parameterNumberName":"V-component_of_WINDS"},"data":[0,0,0,0,0,0,0,0,0,0,0,0,0,0,0,0,0,0,0,0,0,0,0,0,0,0,0,0,0,0,0,0,0,0,0,0,0,0,0,0,0,0,0,0,0,0,0,0,0,0,0,0,0,0,0,0,0,0,4.4697,4.4698,0,4.4831,4.4832,4.4834,4.4831,4.483,4.4828,4.4826,4.4959,4.4964,4.4969,0,0,0,0,0,0,0,0,0,0,0,0,0,4.4433,4.4437,4.4697,4.4698,4.47,4.4831,4.4832,4.4834,4.4832,4.483,4.4827,4.4825,4.4957,4.4963,4.497,0,0,0,0,0,0,0,0,0,0,0,0,0,4.4555,4.4439,4.4696,4.4715,4.4718,4.483,4.4833,4.4835,4.4832,4.4829,4.4827,4.4824,4.4955,4.4963,4.497,4.5072,0,0,4.4994,4.4998,0,0,0,0,0,0,0,0,4.4548,4.4565,4.471,4.4714,4.4717,4.4812,4.4788,4.4914,4.4833,4.4789,4.4826,4.4823,4.4912,4.4923,4.4954,4.5079,4.5084,4.4995,4.5,4.5003,4.5005,0,0,0,0,0,0,0,4.4539,4.4559,4.475,4.4712,4.4717,4.4714,4.4729,4.4812,4.4863,4.4792,4.4792,4.4808,4.4913,4.4946,4.4957,4.5086,4.4995,4.5002,4.5006,4.501,4.5298,4.5301,0,0,0,0,0,0,4.4528,4.4552,4.4745,4.4754,4.4624,4.4721,4.4737,4.4784,4.4863,4.4872,4.4811,4.4808,4.4934,4.4948,4.4962,4.5084,4.5003,4.501,4.5015,4.5295,4.5299,4.5302,0,0,0,0,0,0,4.4522,4.4545,4.474,4.4653,4.4677,4.4729,4.4781,4.4788,4.4821,4.4877,4.4885,4.4836,4.4933,4.4951,4.5044,4.5089,4.5014,4.5021,4.5291,4.5296,4.53,4.5332,0,0,0,0,0,0,4.4515,4.4543,4.4584,4.4654,4.4682,4.4823,4.4784,4.4793,4.4835,4.4833,4.4902,4.4911,4.4932,4.5033,4.5052,4.5098,4.5027,4.5288,4.5294,4.5299,4.5327,4.5337,4.5345,0,0,0,0,0,4.4505,4.4587,4.4586,4.461,4.4735,4.4825,4.4841,4.4865,4.4839,4.4879,4.4914,4.4909,4.5081,4.5042,4.5064,4.5113,4.5285,4.5292,4.5298,4.5323,4.5335,4.5345,0,0,0,0,0,0,4.4521,4.4597,4.4597,4.4704,4.4758,4.4825,4.4877,4.4877,4.4939,4.4934,4.4959,4.4975,4.5068,4.51,4.5056,4.5215,4.5179,4.5191,4.519,4.5202,4.5211,4.5201,4.5033,0,0,0,0,0,4.4537,4.4606,4.4668,4.4756,4.4784,4.4825,4.4866,4.4879,4.4936,4.4959,4.5001,4.5054,4.512,4.5163,4.5227,4.5331,4.5345,4.5376,4.5385,4.5392,4.5401,4.5456,4.547,4.5324,4.5324,4.5324,0,0,4.457,4.462,4.4662,4.4761,4.4805,4.4873,4.4845,4.4919,4.497,4.4969,4.5061,4.5093,4.5154,4.5253,4.5299,4.5283,4.5444,4.54,4.5406,4.5411,4.5464,4.5478,4.549,4.5328,4.5328,4.5327,0,0,4.4666,4.4712,4.479,4.4834,4.4901,4.4928,4.4946,4.5013,4.5034,4.5126,4.5127,4.5186,4.53,4.5343,4.538,4.5489,4.5486,4.5509,4.5556,4.561,4.5621,4.5631,4.5669,4.5682,4.5518,4.5518,4.5518,0,4.4699,4.4805,4.483,4.4904,4.4946,4.495,4.5027,4.5068,4.5152,4.518,4.5161,4.5302,4.5344,4.5452,4.5478,4.5509,4.5528,4.5501,4.5618,4.5628,4.5638,4.5674,4.5688,4.5521,4.552,4.552,4.552,0,4.4841,4.4914,4.4968,4.5049,4.5098,4.5173,4.5207,4.5253,4.5261,4.5289,4.5381,4.5431,4.5504,4.5531,4.554,4.5639,4.5627,4.5613,4.5578,4.5654,4.5688,4.5702,4.5524,4.5523,4.5523,4.5522,0,0,4.4951,4.5044,4.5064,4.51,4.5172,4.5228,4.5302,4.5375,4.5412,4.5469,4.553,4.5625,4.5612,4.5654,4.5667,4.5714,4.5795,4.5694,4.5696,4.5709,4.5905,4.5914,4.593,4.5793,4.5796,4.5798,4.5899,0,4.5054,4.5188,4.5211,4.5328,4.5393,4.5396,4.5461,4.5511,4.5539,4.5597,4.5626,4.5693,4.5671,4.5696,4.5743,4.5775,4.5834,4.5769,4.5848,4.5851,4.5832,4.5948,4.5959,4.6052,4.5913,4.5915,4.5917,0,4.5192,4.5253,4.5376,4.5437,4.5466,4.5524,4.559,4.5647,4.5703,4.5719,4.5765,4.5772,4.5847,4.5809,4.5911,4.5865,4.5899,4.592,4.5924,4.5931,4.5888,4.5957,4.6083,4.6096,4.5938,4.5937,4.5935,0,4.5258,4.537,4.5458,4.5489,4.5563,4.5603,4.5636,4.5689,4.5731,4.5788,4.5815,4.588,4.5915,4.5965,4.5989,4.5959,4.6088,4.6052,4.6102,4.6101,4.6128,4.6126,4.6259,4.6152,4.6152,4.6152,4.6151,0,4.5369,4.5444,4.5488,4.5542,4.5625,4.565,4.573,4.5761,4.5809,4.5867,4.5873,4.5927,4.5956,4.6013,4.6032,4.6112,4.6129,4.6142,4.6146,4.6141,4.6139,4.6163,4.6157,4.6155,4.6154,4.6154,4.6153,0,4.5457,4.549,4.5585,4.5648,4.5665,4.5723,4.5776,4.5827,4.5853,4.5926,4.5945,4.5986,4.6054,4.6083,4.6167,4.6179,4.627,4.627,4.6252,4.6253,4.63,4.6294,4.6452,4.6473,4.6353,4.6354,4.6355,0,4.5526,4.5583,4.5652,4.5691,4.5725,4.579,4.5832,4.5857,4.59,4.5967,4.6009,4.6077,4.6133,4.6241,4.6277,4.634,4.6341,4.6391,4.635,4.6342,4.6339,4.6335,4.634,4.6399,4.64,4.6401,4.6402,0,4.5643,4.5656,4.5717,4.5783,4.5833,4.5887,4.5939,4.597,4.6004,4.6051,4.6121,4.6165,4.6249,4.6316,4.6381,4.6412,4.6412,4.6414,4.6429,4.6424,4.641,4.6416,4.6271,4.6411,4.641,4.6409,4.6409,4.6408,4.5722,4.5772,4.5828,4.5895,4.5937,4.5985,4.6035,4.6068,4.6127,4.6199,4.621,4.6284,4.6335,4.6423,4.6456,4.6513,4.65,4.6521,4.6526,4.6531,4.6533,4.6402,4.6525,4.6525,4.6524,4.6524,4.6524,0,4.5838,4.5874,4.5935,4.6008,4.606,4.6056,4.6113,4.6156,4.6221,4.627,4.6325,4.6404,4.6468,4.6509,4.6573,4.661,4.6612,4.6626,4.6623,4.663,4.6542,4.6522,4.6624,4.6624,4.6624,4.6624,4.6624,4.6624,4.5905,4.5989,4.6008,4.6112,4.6147,4.622,4.6252,4.6295,4.6334,4.6423,4.6476,4.6503,4.6548,4.6615,4.6673,4.6683,4.6705,4.672,4.6729,4.6647,4.6636,4.6626,4.6608,4.6726,4.6726,4.6812,4.6813,4.6814]}]]